Flag for Canada Weather past 2 weeks in Quesnel, British Columbia, Canada

Now
64 °F

Sunny.


Feels Like: 64 °F
Forecast: 47 / 64 °F
Wind: 17 mph from South

Location: Quesnel Airport

Current Time: Apr 28, 2015 at 9:50:54 AM

Latest Report: Apr 28, 2015 at 9:00 AM


Visibility: 9 mi

Pressure: 29.66 "Hg

Humidity: 40%

Dew point: 39 °F

Location of QuesnelLocation

Historic Weather in Quesnel — Graph

°F

Quesnel temperature yesterday

Maximum temperature yesterday: 68 °F (at 4:00 PM)
Minimum temperature yesterday: 41 °F (at 3:00 AM)
Average temperature yesterday: 55 °F

Past Weeks' High & Low Weather Summary

 TemperatureHumidityPressure
High73 °F (Apr 20, 5:00 PM)100% (Apr 22, 7:00 AM)30.53 "Hg (Apr 22, 7:00 AM)
Low25 °F (Apr 15, 6:00 AM)19% (Apr 14, 2:00 PM)29.61 "Hg (Apr 23, 10:00 PM)
Average47 °F59%30.00 "Hg
* Reported Apr 13 9:00 AM — Apr 28 9:00 AM, Quesnel, Weather by CustomWeather, © 2015

Note: Actual official high and low records may vary slightly from our data, if they occured in-between our weather recording intervals... More about our weather records

Advertising

Quesnel weather history for previous 24 hours

 ConditionsComfort  
Time TempWeatherWind HumidityBarometerVisibility
9:00 AM
Tue, Apr 28
64 °FSunny.17 mph40%29.66 "Hg9 mi
8:00 AM61 °FSunny.15 mph48%29.66 "Hg9 mi
7:00 AM59 °FScattered clouds.13 mph48%29.67 "Hg9 mi
6:00 AM59 °FPassing clouds.16 mph48%29.68 "Hg9 mi
5:00 AM59 °FClear.9 mph48%29.70 "Hg9 mi
4:00 AM59 °FPassing clouds.7 mph48%29.72 "Hg9 mi
3:00 AM59 °FClear.10 mph48%29.77 "Hg9 mi
2:00 AM59 °FClear.12 mph48%29.81 "Hg9 mi
1:00 AM61 °FClear.15 mph45%29.83 "Hg9 mi
12:00 AM61 °FClear.14 mph48%29.85 "Hg9 mi
11:56 PM
Mon, Apr 27
61 °FPassing clouds.20 mph48%29.86 "Hg9 mi
11:00 PM61 °FPassing clouds.8 mph52%29.88 "Hg9 mi
10:00 PM61 °FPassing clouds.13 mph48%29.90 "Hg9 mi
9:00 PM63 °FPartly sunny.10 mph45%29.91 "Hg9 mi
8:00 PM64 °FSunny.17 mph43%29.91 "Hg9 mi
7:00 PM66 °FSunny.17 mph40%29.92 "Hg9 mi
6:00 PM68 °FPassing clouds.23 mph35%29.93 "Hg9 mi
5:00 PM68 °FScattered clouds.17 mph35%29.94 "Hg9 mi
4:00 PM68 °FOvercast.10 mph35%29.96 "Hg9 mi
3:00 PM66 °FPartly sunny.10 mph37%29.98 "Hg9 mi
2:00 PM63 °FSunny.7 mph42%30.02 "Hg9 mi
1:00 PM61 °FPassing clouds.10 mph42%30.03 "Hg9 mi
12:00 PM57 °FScattered clouds.10 mph48%30.06 "Hg9 mi
11:00 AM54 °FPartly sunny.5 mph47%30.09 "Hg9 mi
10:00 AM50 °FPartly sunny.7 mph54%30.11 "Hg9 mi
9:00 AM48 °FOvercast.6 mph54%30.13 "Hg9 mi
Weather by CustomWeather, © 2015

See weather overviewHow to use our weather pages